TimeCST,TemperatureF,Dew PointF,Humidity,Sea Level PressureIn,VisibilityMPH,Wind Direction,Wind SpeedMPH,Gust SpeedMPH,PrecipitationIn,Events,Conditions,WindDirDegrees,DateUTC
12:35 AM,24.8,17.6,74,30.07,10.0,ESE,6.9,-,N/A,,Clear,110,2012-12-27 06:35:00
12:55 AM,24.8,17.6,74,30.07,10.0,ESE,5.8,-,N/A,,Clear,110,2012-12-27 06:55:00
1:15 AM,24.8,17.6,74,30.07,10.0,ESE,6.9,-,N/A,,Clear,110,2012-12-27 07:15:00
1:55 AM,24.8,17.6,74,30.06,10.0,ESE,9.2,-,N/A,,Clear,120,2012-12-27 07:55:00
2:15 AM,24.8,17.6,74,30.07,10.0,ESE,6.9,-,N/A,,Clear,110,2012-12-27 08:15:00
2:35 AM,24.8,17.6,74,30.07,10.0,ESE,5.8,-,N/A,,Clear,110,2012-12-27 08:35:00
2:55 AM,24.8,17.6,74,30.07,10.0,East,6.9,-,N/A,,Clear,100,2012-12-27 08:55:00
3:55 AM,24.8,17.6,74,30.06,10.0,ESE,6.9,-,N/A,,Clear,110,2012-12-27 09:55:00
4:35 AM,24.8,17.6,74,30.06,10.0,ESE,5.8,-,N/A,,Clear,120,2012-12-27 10:35:00
4:55 AM,24.8,17.6,74,30.05,10.0,ESE,5.8,-,N/A,,Clear,110,2012-12-27 10:55:00
5:35 AM,24.8,17.6,74,30.03,10.0,ESE,5.8,-,N/A,,Clear,110,2012-12-27 11:35:00
5:55 AM,24.8,17.6,74,30.03,10.0,ESE,8.1,-,N/A,,Clear,110,2012-12-27 11:55:00
6:15 AM,24.8,17.6,74,30.03,10.0,East,4.6,-,N/A,,Clear,100,2012-12-27 12:15:00
6:35 AM,24.8,17.6,74,30.03,10.0,ESE,6.9,-,N/A,,Clear,110,2012-12-27 12:35:00
6:55 AM,24.8,17.6,74,30.03,10.0,ESE,4.6,-,N/A,,Clear,110,2012-12-27 12:55:00
7:15 AM,24.8,17.6,74,30.03,10.0,East,4.6,-,N/A,,Clear,100,2012-12-27 13:15:00
7:35 AM,24.8,17.6,74,30.04,10.0,ESE,4.6,-,N/A,,Clear,110,2012-12-27 13:35:00
7:55 AM,24.8,17.6,74,30.04,10.0,East,4.6,-,N/A,,Clear,100,2012-12-27 13:55:00
8:15 AM,26.6,19.4,74,30.05,10.0,ESE,5.8,-,N/A,,Clear,110,2012-12-27 14:15:00
8:35 AM,26.6,19.4,74,30.05,10.0,ESE,5.8,-,N/A,,Clear,120,2012-12-27 14:35:00
8:55 AM,28.4,19.4,69,30.04,10.0,ESE,9.2,-,N/A,,Clear,120,2012-12-27 14:55:00
9:55 AM,30.2,21.2,69,30.04,10.0,SE,9.2,-,N/A,,Clear,140,2012-12-27 15:55:00
10:35 AM,33.8,21.2,60,30.04,10.0,SSE,10.4,-,N/A,,Clear,150,2012-12-27 16:35:00
10:55 AM,35.6,23.0,60,30.03,10.0,SSE,11.5,-,N/A,,Clear,160,2012-12-27 16:55:00
11:35 AM,39.2,21.2,49,30.01,10.0,South,10.4,-,N/A,,Clear,170,2012-12-27 17:35:00
11:55 AM,39.2,21.2,49,30.00,10.0,South,11.5,-,N/A,,Clear,180,2012-12-27 17:55:00
12:15 PM,39.2,19.4,45,29.98,10.0,South,12.7,17.3,N/A,,Clear,190,2012-12-27 18:15:00
12:35 PM,39.2,19.4,45,29.98,10.0,South,11.5,18.4,N/A,,Clear,190,2012-12-27 18:35:00
1:15 PM,41.0,19.4,42,29.96,10.0,South,12.7,17.3,N/A,,Clear,180,2012-12-27 19:15:00
1:35 PM,39.2,19.4,45,29.95,10.0,South,11.5,-,N/A,,Clear,190,2012-12-27 19:35:00
1:55 PM,39.2,19.4,45,29.94,10.0,South,12.7,-,N/A,,Clear,180,2012-12-27 19:55:00
2:15 PM,39.2,19.4,45,29.95,10.0,South,11.5,-,N/A,,Clear,170,2012-12-27 20:15:00
2:35 PM,39.2,21.2,49,29.94,10.0,South,10.4,-,N/A,,Clear,180,2012-12-27 20:35:00
3:15 PM,37.4,21.2,52,29.94,10.0,SSE,10.4,-,N/A,,Clear,160,2012-12-27 21:15:00
3:35 PM,37.4,21.2,52,29.93,10.0,South,9.2,-,N/A,,Clear,170,2012-12-27 21:35:00
3:55 PM,37.4,21.2,52,29.92,10.0,South,5.8,-,N/A,,Clear,180,2012-12-27 21:55:00
4:15 PM,37.4,21.2,52,29.92,10.0,South,5.8,-,N/A,,Clear,170,2012-12-27 22:15:00
4:55 PM,35.6,21.2,56,29.91,10.0,SSE,5.8,-,N/A,,Clear,160,2012-12-27 22:55:00
5:15 PM,35.6,21.2,56,29.91,10.0,SSE,5.8,-,N/A,,Clear,150,2012-12-27 23:15:00
5:35 PM,35.6,21.2,56,29.92,10.0,SE,6.9,-,N/A,,Clear,140,2012-12-27 23:35:00
5:55 PM,35.6,21.2,56,29.92,10.0,SSE,8.1,-,N/A,,Clear,150,2012-12-27 23:55:00
6:15 PM,35.6,21.2,56,29.92,10.0,SE,9.2,-,N/A,,Clear,140,2012-12-28 00:15:00
6:35 PM,35.6,21.2,56,29.92,10.0,SSE,8.1,-,N/A,,Clear,150,2012-12-28 00:35:00
6:55 PM,35.6,21.2,56,29.92,10.0,SSE,6.9,-,N/A,,Clear,150,2012-12-28 00:55:00
7:15 PM,35.6,21.2,56,29.92,10.0,SSE,8.1,-,N/A,,Clear,150,2012-12-28 01:15:00
7:35 PM,33.8,21.2,60,29.92,10.0,SSE,11.5,-,N/A,,Clear,150,2012-12-28 01:35:00
7:55 PM,33.8,21.2,60,29.92,10.0,SSE,10.4,-,N/A,,Clear,150,2012-12-28 01:55:00
8:15 PM,33.8,21.2,60,29.92,10.0,SSE,11.5,-,N/A,,Clear,150,2012-12-28 02:15:00
8:35 PM,33.8,23.0,65,29.92,10.0,SSE,10.4,-,N/A,,Clear,150,2012-12-28 02:35:00
9:15 PM,33.8,23.0,65,29.93,10.0,SSE,6.9,-,N/A,,Partly Cloudy,150,2012-12-28 03:15:00
9:35 PM,32.0,23.0,69,29.93,10.0,SSE,5.8,-,N/A,,Clear,160,2012-12-28 03:35:00
10:15 PM,32.0,24.8,75,29.95,10.0,SSE,6.9,-,N/A,,Scattered Clouds,160,2012-12-28 04:15:00
10:35 PM,33.8,24.8,70,29.96,10.0,South,4.6,-,N/A,,Overcast,170,2012-12-28 04:35:00
10:55 PM,33.8,24.8,70,29.95,10.0,SSE,5.8,-,N/A,,Overcast,150,2012-12-28 04:55:00
11:35 PM,33.8,24.8,70,29.96,10.0,SSW,5.8,-,N/A,,Overcast,200,2012-12-28 05:35:00
11:55 PM,33.8,26.6,75,29.95,10.0,South,6.9,-,N/A,,Overcast,180,2012-12-28 05:55:00